SCP
0 0 0 0 0 0 0 0 0 0 0 0 0 0 0 0 0 0 0 0 0 0 0 0 0 0 0 0 0 0 0 0 0 0 0 0 0 0 0 0 0 0 0
0 0 0 0 0 0 0 0 0 0 0 0 0 0 0 0 0 0 0 0 0 0 0 0 0 0 0 0 0 0 0 0 0 0 0 0 0 0 0 0 0 0 0
0 0 0 0 0 0 0 0 0 0 0 0 0 0 0 0 0 0 0 0 0 0 0 0 0 0 0 0 0 0 0 0 0 0 0 0 0 0 0 0 0 0 0
0 0 0 0 0 0 0 0 0 0 0 0 0 0 0 0 0 0 0 0 0 0 0 0 0 0 0 0 0 0 0 0 0 0 0 0 0 0 0 0 0 0 0
0 0 0 0 0 0 0 0 0 0 0 0 0 0 0 0 0 0 0 0 0 0 0 0 0 0 0 0 0 0 0 0 0 0 0 0 0 0 0 0 0 0 0
0 0 0 0 0 0 0 0 0 0 0 0 0 0 0 0 0 0 0 0 0 0 0 0 0 0 0 0 0 0 0 0 0 0 0 0 0 0 0 0 0 0 0
0 0 0 0 0 0 0 0 0 0 0 0 0 0 0 0 0 0 0 0 0 0 0 0 0 0 0 0 0 0 0 0 0 0 0 0 0 0 0 0 0 0 0
0 0 0 0 0 0 0 0 0 0 0 0 0 0 0 0 0 0 0 0 0 0 0 0 0 0 0 0 0 0 0 0 0 0 0 0 0 0 0 0 0 0 0
0 0 0 0 0 0 0 0 0 0 0 0 0 0 0 0 0 0 0 0 0 0 0 0 0 0 0 0 0 0 0 0 0 0 0 0 0 0 0 0 0 0 0
0 0 0 0 0 0 0 0 0 0 0 0 0 0 0 0 0 0 0 0 0 0 0 0 0 0 0 0 0 0 0 0 0 0 0 0 0 0 0 0 0 0 0
0 0 0 0 0 0 0 0 0 0 0 0 0 0 0 0 0 0 0 0 0 0 0 0 0 0 0 0 0 0 0 0 0 0 0 0 0 0 0 0 0 0 0
0 0 0 0 0 0 0 0 0 0 0 0 0 0 0 0 0 0 0 0 0 0 0 0 0 0 0 0 0 0 0 0 0 0 0 0 0 0 0 0 0 0 0
0 0 0 0 0 0 0 0 0 0 0 0 0 0 0 0 0 0 0 0 0 0 0 0 0 0 0 0 0 0 0 0 0 0 0 0 0 0 0 0 0 0 0
0 0 0 0 0 0 0 0 0 0 0 0 0 0 0 0 0 0 0 0 0 0 0 0 0 0 0 0 0 0 0 0 0 0 0 0 0 0 0 0 0 0 0
0 0 0 0 0 0 0 0 0 0 0 0 0 0 0 0 0 0 0 0 0 0 0 0 0 0 0 0 0 0 0 0 0 0 0 0 0 0 0 0 0 0 0
0 0 0 0 0 0 0 0 0 0 0 0 0 0 0 0 0 0 0 0 0 0 0 0 0 0 0 0 0 0 0 0 0 0 0 0 0 0 0 0 0 0 0
0 0 0 0 0 0 0 0 0 0 0 0 0 0 0 0 0 0 0 0 1 1 0 0 0 0 0 0 0 0 0 0 0 0 0 0 0 0 0 0 0 0 0
1 1 1 1 0 0 1 1 1 0 0 0 0 0 0 0 0 0 0 1 1 1 1 1 1 1 1 0 0 0 0 0 0 0 0 0 0 0 0 0 0 0 0
1 1 1 1 1 1 1 1 1 1 0 0 0 0 0 0 0 0 1 1 1 1 1 1 1 1 1 0 0 0 0 0 0 0 0 0 0 0 0 0 0 0 0
1 1 1 1 1 1 1 1 1 1 1 1 0 0 0 0 0 0 1 1 1 1 1 1 1 1 1 1 0 0 0 0 0 0 0 0 0 0 0 0 0 0 -0
1 1 1 1 1 1 1 1 1 1 1 1 1 1 0 0 0 0 0 1 1 1 1 1 1 1 1 1 0 0 0 0 0 0 0 0 0 0 0 0 0 0 0
1 1 1 1 1 1 0 0 0 1 1 1 1 1 1 0 0 0 0 0 0 1 1 1 1 1 1 1 1 0 0 0 0 0 0 0 0 0 0 0 0 0 0
1 1 1 1 1 1 0 0 0 1 1 1 1 1 1 1 0 0 0 0 0 0 0 1 1 1 1 1 1 0 0 0 0 0 0 0 0 0 0 0 0 0 0
1 1 1 1 1 1 0 0 0 1 1 1 1 1 1 1 1 1 1 0 0 0 0 0 0 0 0 0 0 0 0 0 0 0 0 0 0 0 0 0 0 0 0
1 1 1 1 1 1 0 0 0 1 1 1 1 1 1 1 1 0 0 1 1 0 0 0 0 0 0 0 0 0 0 0 0 0 0 0 0 0 0 0 0 0 0
1 1 1 1 1 1 1 0 0 1 1 1 1 1 1 1 0 0 0 1 1 0 0 0 0 0 0 0 0 0 0 0 0 0 0 0 0 0 0 0 0 0 0
Wind_Speed
1 1 1 1 1 1 2 2 1 2 2 3 3 3 3 2 3 3 3 7 6 6 6 6 6 6 7 8 8 9 9 9 9 9 9 9 8 8 8 9 9 8 8
0 1 1 1 1 1 0 1 1 2 3 2 3 3 3 3 2 3 2 6 8 6 6 6 6 6 7 8 9 9 9 9 8 8 9 8 8 8 8 8 9 8 8
0 1 1 2 1 1 1 2 2 2 3 3 3 3 3 3 2 2 3 2 5 8 7 6 6 6 6 7 9 10 10 9 9 9 8 8 8 8 8 8 8 8 8
1 2 2 1 0 1 1 1 2 1 1 2 2 2 2 2 2 3 3 2 2 3 7 8 6 6 6 6 7 9 9 9 9 10 9 9 9 9 8 8 8 9 9
2 2 1 0 1 1 1 2 0 1 1 1 2 2 2 2 2 2 2 2 2 2 2 8 8 6 6 6 6 7 7 8 7 8 9 9 9 9 9 9 9 9 9
2 2 1 1 1 1 1 0 1 1 2 2 2 1 2 2 2 1 2 2 2 2 2 2 5 7 7 6 5 5 6 7 7 7 8 9 9 8 8 8 8 8 8
2 2 1 1 1 1 1 1 2 2 2 1 2 2 2 3 1 2 2 2 1 2 1 2 2 2 5 8 5 4 5 6 7 7 7 8 8 8 8 8 8 7 7
3 3 2 2 2 2 2 1 2 2 1 1 2 2 2 3 3 2 2 2 2 1 2 2 2 1 2 2 5 5 4 4 6 7 8 8 8 8 8 8 8 8 8
3 2 2 2 2 2 1 2 2 3 2 2 2 3 2 1 0 2 2 2 2 2 2 1 2 2 2 1 2 5 3 3 4 5 6 7 7 7 7 7 7 7 7
3 3 3 3 2 2 1 3 2 2 3 3 2 2 2 3 2 1 2 2 2 3 2 2 1 2 2 1 1 2 2 2 3 3 4 6 7 7 7 7 7 7 7
3 3 2 2 2 2 2 2 2 3 3 3 3 2 2 2 4 3 2 2 2 3 2 2 1 1 2 2 2 2 3 2 1 1 2 3 5 6 6 6 6 6 7
3 4 3 3 3 2 2 3 3 3 3 3 3 3 3 3 3 3 3 3 3 2 2 2 2 2 2 3 1 4 4 2 1 1 1 2 3 5 6 6 5 6 6
4 4 4 3 3 3 3 3 3 3 3 3 4 3 3 3 3 3 3 3 3 2 2 3 3 2 2 2 2 4 4 3 2 2 2 1 2 4 5 4 4 4 4
3 3 4 4 4 4 4 3 3 3 3 4 4 4 3 3 3 4 4 3 3 3 3 3 2 2 2 2 2 3 3 5 3 3 3 2 2 3 4 4 4 4 4
3 4 5 5 4 4 4 4 3 4 3 4 4 5 5 3 4 4 4 4 4 4 3 3 2 2 2 1 2 2 2 4 4 3 3 3 3 3 3 3 3 4 4
4 4 5 5 5 5 4 5 4 4 4 4 4 4 5 4 3 4 4 4 4 4 4 1 1 1 1 1 2 2 2 5 5 4 3 3 3 4 4 4 4 4 4
5 5 5 5 5 5 5 5 5 5 5 5 5 5 5 4 4 4 3 4 4 4 4 2 1 1 2 3 1 2 3 4 3 6 5 4 4 4 4 4 4 4 4
5 5 5 5 5 5 5 5 6 5 5 5 5 5 5 4 4 4 3 4 3 3 4 4 3 3 3 3 3 4 3 3 3 6 6 5 4 4 4 4 4 4 4
5 5 5 5 5 5 5 5 5 5 5 5 4 4 4 4 4 3 4 4 4 4 4 4 4 2 3 2 3 3 3 3 4 4 6 6 5 5 5 5 4 4 4
5 5 5 5 5 5 5 5 5 4 4 4 4 4 4 4 4 4 4 4 4 4 3 4 3 3 3 2 3 3 3 2 3 2 0 1 4 6 6 6 5 4 4
6 5 5 5 5 5 4 4 5 5 4 4 4 4 3 3 2 3 4 3 3 3 3 4 4 3 2 2 3 3 3 2 2 1 2 2 2 3 4 6 6 5 4
4 4 5 5 5 4 1 3 5 5 4 4 4 4 4 4 3 3 2 3 3 4 4 4 4 3 2 2 2 3 3 3 2 0 2 2 2 2 2 1 4 5 3
5 5 6 6 5 4 3 4 5 5 5 4 4 4 4 2 3 3 4 5 4 3 3 5 4 3 2 1 2 4 3 3 3 2 2 3 2 2 2 2 6 4 3
4 4 5 5 5 4 5 5 5 6 5 4 4 4 4 2 2 2 3 4 4 4 4 4 4 3 2 1 3 4 3 4 4 3 3 3 2 2 1 1 6 5 4
4 5 4 4 5 4 5 5 6 5 5 5 4 4 4 3 2 2 4 4 4 4 4 3 1 1 1 2 3 4 3 4 3 2 2 3 2 2 2 2 4 7 6
4 4 4 4 4 4 5 6 7 5 5 4 4 5 4 3 3 4 5 5 5 4 3 4 5 5 5 5 6 5 4 4 3 3 1 2 3 2 2 2 1 2 3
Wind_Direction
204 155 159 234 250 189 191 212 218 209 222 222 228 228 243 256 258 244 152 161 186 207 211 209 211 208 204 201 203 206 208 211 212 214 214 214 214 216 220 219 218 218 219
247 236 202 209 238 244 253 233 225 220 223 227 238 243 249 243 238 251 221 169 180 194 199 204 209 213 213 212 209 210 213 217 215 214 213 215 214 217 221 219 219 219 218
232 266 229 213 237 262 227 226 227 227 219 217 224 234 241 247 240 248 260 228 181 179 189 199 208 215 222 223 220 215 213 216 215 216 215 213 215 219 220 219 222 223 223
214 246 238 212 230 236 225 219 235 241 238 241 238 249 228 213 223 231 239 233 237 197 178 183 198 213 222 227 226 217 213 214 214 217 216 215 218 219 218 222 227 227 225
209 230 231 49 231 220 233 255 127 276 260 265 236 213 223 211 219 217 227 229 217 235 204 167 184 202 215 224 225 212 209 213 215 217 217 217 220 220 218 224 227 227 225
207 242 189 165 235 202 234 306 265 258 269 263 263 228 221 209 214 203 233 207 207 219 224 206 192 187 195 210 219 212 207 205 213 220 222 221 220 216 214 220 223 224 224
192 225 244 161 226 198 238 237 248 226 242 252 241 222 200 194 203 195 220 247 218 223 204 202 239 241 180 182 196 207 209 210 212 218 219 219 218 213 215 219 221 221 225
210 203 211 220 194 195 211 227 239 270 262 238 265 245 216 183 196 194 203 216 242 231 214 195 188 211 267 183 149 181 208 224 223 222 221 219 214 211 213 218 221 222 227
210 233 217 238 227 228 199 220 233 241 259 242 263 283 280 276 231 169 204 207 227 245 240 211 203 196 227 226 170 166 191 224 239 231 225 215 209 206 204 211 215 218 223
209 210 215 226 244 247 230 239 223 248 256 254 224 256 298 333 290 232 202 197 211 227 244 256 220 181 211 207 142 93 149 194 234 237 232 216 209 204 205 214 217 219 221
213 218 211 216 228 243 245 267 256 256 250 264 263 247 242 235 255 266 254 243 226 221 212 232 245 239 222 223 208 124 147 177 208 231 240 221 213 207 206 212 219 223 225
204 203 209 217 228 244 240 247 247 235 258 272 279 271 251 247 245 253 254 241 240 225 222 237 244 232 230 232 193 111 140 157 179 213 230 218 209 204 203 210 220 229 231
205 197 208 215 229 228 235 240 239 258 253 257 262 265 263 266 267 266 269 266 265 233 211 228 229 234 233 229 162 146 156 166 179 205 213 216 214 208 206 210 216 228 225
216 198 209 216 227 232 234 227 241 238 239 247 255 263 262 257 261 255 261 268 267 248 214 223 222 222 245 239 102 197 176 164 187 208 220 223 226 219 212 210 213 218 216
207 206 219 223 225 227 236 239 239 245 245 247 246 239 249 246 245 254 256 259 266 270 251 204 219 203 227 229 125 218 221 152 183 203 213 225 227 215 208 208 212 217 215
217 212 216 221 221 219 224 237 236 232 239 246 259 268 266 260 256 246 244 246 252 270 279 288 230 192 206 244 154 224 207 157 180 191 198 213 219 211 207 208 212 209 209
218 220 221 223 223 222 221 228 241 236 242 249 253 249 253 269 269 263 251 248 243 249 258 268 289 207 216 256 238 241 233 231 190 176 187 204 213 210 209 211 208 204 210
224 221 222 224 227 225 227 231 241 240 241 244 249 251 254 252 253 267 267 257 255 251 253 255 247 235 223 224 236 248 249 250 258 159 176 195 202 203 202 204 203 204 203
222 224 216 218 225 226 226 230 237 240 241 243 244 246 253 257 256 258 262 258 253 244 241 242 238 230 233 221 229 238 246 258 264 179 175 184 191 194 196 198 198 196 198
218 218 218 223 225 226 227 230 229 232 236 238 242 247 250 250 253 258 250 250 256 258 242 241 236 229 221 216 237 245 242 230 261 272 273 196 177 187 193 191 191 190 193
219 216 218 224 226 226 230 232 229 221 228 233 235 239 233 233 274 280 281 260 246 247 243 241 237 242 228 221 237 249 253 255 237 263 274 250 207 212 199 189 184 182 187
222 219 220 223 228 234 210 246 254 233 228 231 234 237 222 206 198 202 260 296 291 257 257 256 241 240 242 243 258 260 264 268 269 222 275 278 269 257 253 220 128 146 172
219 219 221 221 224 219 192 215 240 242 233 232 233 239 246 198 214 223 203 209 223 229 246 265 263 255 247 237 252 255 266 290 302 308 282 277 266 259 255 110 127 144 162
220 223 223 222 222 207 191 209 232 233 237 231 229 227 235 229 238 244 236 230 232 219 219 232 257 254 251 257 255 260 262 253 241 232 244 266 264 271 259 150 144 158 168
226 230 228 224 222 209 196 209 225 228 223 227 226 220 227 222 190 235 234 234 238 232 193 175 181 198 185 208 253 259 256 258 259 248 226 264 263 269 266 218 161 168 176
238 243 236 233 226 218 191 201 224 232 226 222 214 211 201 221 199 218 232 235 239 241 232 190 187 196 204 198 209 242 263 266 272 267 210 261 259 266 265 251 252 198 187